Fort Campbell, KY

5:37 AM CST on February 08, 2016 (GMT -0600)
Campbell Army Air Field

Weather History for KHOP - December, 2012

Change the Weather History Date:

Sunday, December 16, 2012

  Actual Average Record
Temperature  
Mean Temperature 60 °F -  
Max Temperature 63 °F 45 °F 66 °F (2006)
Min Temperature 57 °F 27 °F 21 °F (2004)
Degree Days  
Heating Degree Days 5    
Growing Degree Days 10 (Base 50)    
Moisture  
Dew Point 57 °F    
Average Humidity 91    
Maximum Humidity 100    
Minimum Humidity 72    
Precipitation  
Precipitation 0.00 in - - ()
Sea Level Pressure  
Sea Level Pressure 29.76 in    
Wind  
Wind Speed 11 mph (SSW)    
Max Wind Speed 15 mph    
Max Gust Speed 22 mph    
Visibility 10 miles    
Events      
Averages and records for this station are not official NWS values.
T = Trace of Precipitation, MM = Missing Value Source: NWS Daily Summary

Daily Weather History Graph

Daily Weather History Graph

Search for Another Location

Airport or City:

Trip Planner

Search our weather history database for the weather conditions in past years. The results will help you decide how hot, cold, wet, or windy it might be!

Date:

Astronomy

Dec. 16, 2012 Rise Set
Actual Time 6:56 AM CST 4:35 PM CST
Civil Twilight 6:27 AM CST 5:04 PM CST
Nautical Twilight 5:54 AM CST 5:37 PM CST
Astronomical Twilight 5:23 AM CST 6:08 PM CST
Moon 9:33 AM CST (12/16) 8:44 PM CST (12/16)
Length of Visible Light 10h 37m
Length of Day
9h 39m
Waxing Crescent, 16% of the Moon is Illuminated
Dec 16
Waxing Crescent
Dec 19
First Quarter
Dec 28
Full
Jan 4
Last Quarter
Jan 11
New

Hourly Weather History & Observations

Time (CST) Temp. Dew Point Humidity Pressure Visibility Wind Dir Wind Speed Gust Speed Precip Events Conditions
12:55 AM 60.8 °F 58.8 °F 93% 29.81 in 10.0 mi SSW 10.4 mph - N/A   Mostly Cloudy
1:55 AM 60.4 °F 59.4 °F 96% 29.81 in 10.0 mi South 10.4 mph - N/A   Mostly Cloudy
2:22 AM 60.8 °F 59.0 °F 94% 29.80 in 10.0 mi SSW 15.0 mph 21.9 mph N/A   Mostly Cloudy
2:25 AM 60.8 °F 59.0 °F 94% 29.80 in 10.0 mi South 12.7 mph 21.9 mph N/A   Mostly Cloudy
2:55 AM 61.3 °F 59.9 °F 95% 29.81 in 10.0 mi SSW 13.8 mph 21.9 mph N/A   Overcast
3:10 AM 60.8 °F 60.8 °F 100% 29.80 in 10.0 mi SSW 15.0 mph - N/A   Scattered Clouds
3:55 AM 60.8 °F 60.3 °F 98% 29.79 in 10.0 mi SSW 15.0 mph - N/A   Partly Cloudy
4:55 AM 59.9 °F 59.9 °F 100% 29.78 in 10.0 mi SSW 10.4 mph - N/A   Mostly Cloudy
5:55 AM 59.4 °F 59.4 °F 100% 29.79 in 10.0 mi SSW 8.1 mph - N/A   Mostly Cloudy
6:55 AM 58.5 °F 58.5 °F 100% 29.79 in 10.0 mi SSW 8.1 mph - N/A   Overcast
7:55 AM 58.6 °F 58.6 °F 100% 29.81 in 10.0 mi SSW 9.2 mph - N/A   Partly Cloudy
8:55 AM 59.2 °F 59.2 °F 100% 29.82 in 10.0 mi SSW 8.1 mph - N/A   Scattered Clouds
9:55 AM 60.8 °F 60.8 °F 100% 29.79 in 10.0 mi South 10.4 mph - N/A   Clear
10:55 AM 62.4 °F 57.9 °F 85% 29.78 in 10.0 mi SSW 12.7 mph - N/A   Partly Cloudy
11:55 AM 63.1 °F 54.9 °F 74% 29.76 in 10.0 mi SSW 15.0 mph - N/A   Scattered Clouds
12:55 PM 63.0 °F 54.0 °F 72% 29.74 in 10.0 mi SSW 6.9 mph - N/A   Partly Cloudy
1:55 PM 62.6 °F 54.7 °F 75% 29.73 in 10.0 mi South 8.1 mph - N/A   Clear
2:55 PM 61.9 °F 55.2 °F 79% 29.71 in 10.0 mi South 3.5 mph - N/A   Clear
3:55 PM 60.8 °F 56.1 °F 85% 29.70 in 10.0 mi South 6.9 mph - N/A   Scattered Clouds
4:00 PM 60.8 °F 55.4 °F 82% 29.69 in 10.0 mi South 8.1 mph - N/A   Mostly Cloudy
4:55 PM 60.8 °F 56.7 °F 86% 29.71 in 10.0 mi South 5.8 mph - N/A   Overcast
5:38 PM 59.0 °F 57.2 °F 94% 29.73 in 10.0 mi SSW 6.9 mph - N/A   Overcast
5:55 PM 60.3 °F 57.9 °F 92% 29.73 in 10.0 mi SSW 8.1 mph - N/A   Overcast
6:09 PM 60.8 °F 57.2 °F 88% 29.74 in 10.0 mi SSW 10.4 mph - N/A   Overcast
6:26 PM 60.8 °F 57.2 °F 88% 29.73 in 10.0 mi SSW 9.2 mph - N/A   Mostly Cloudy
6:31 PM 60.8 °F 57.2 °F 88% 29.73 in 10.0 mi SSW 10.4 mph - N/A   Mostly Cloudy
6:55 PM 60.6 °F 56.8 °F 87% 29.73 in 10.0 mi SSW 8.1 mph - N/A   Overcast
7:51 PM 57.2 °F 53.6 °F 88% 29.76 in 10.0 mi SW 10.4 mph - N/A   Scattered Clouds
7:55 PM 57.7 °F 54.5 °F 89% 29.76 in 10.0 mi SW 10.4 mph - N/A   Scattered Clouds
8:55 PM 57.6 °F 54.3 °F 89% 29.76 in 10.0 mi South 12.7 mph - N/A   Clear
9:55 PM 57.4 °F 54.9 °F 91% 29.77 in 10.0 mi SSW 11.5 mph - N/A   Overcast
10:00 PM 57.2 °F 55.4 °F 94% 29.78 in 10.0 mi SSW 9.2 mph - N/A   Overcast
10:55 PM 57.7 °F 54.9 °F 90% 29.77 in 10.0 mi SSW 9.2 mph - N/A   Overcast
11:01 PM 57.2 °F 55.4 °F 94% 29.77 in 10.0 mi SSW 10.4 mph - N/A   Overcast
11:55 PM 57.6 °F 55.9 °F 94% 29.76 in 10.0 mi South 9.2 mph - N/A   Overcast